Time,TemperatureF,DewpointF,PressureIn,WindDirection,WindDirectionDegrees,WindSpeedMPH,WindSpeedGustMPH,Humidity,HourlyPrecipIn,Conditions,Clouds,dailyrainin,SoftwareType,DateUTC
2013-05-13 00:13:00,36.1,32.0,30.08,NW,310,7.0,-999.0,85,-99.99,,,0.02,weatherlink.com 1.10,2013-05-13 04:13:00,
2013-05-13 00:28:00,36.0,32.0,30.09,WNW,289,6.0,-999.0,86,-99.99,,,0.02,weatherlink.com 1.10,2013-05-13 04:28:00,
2013-05-13 00:43:00,35.9,32.0,30.09,WNW,292,6.0,-999.0,86,-99.99,,,0.02,weatherlink.com 1.10,2013-05-13 04:43:00,
2013-05-13 00:58:00,34.4,31.0,30.09,WNW,298,2.0,-999.0,88,-99.99,,,0.02,weatherlink.com 1.10,2013-05-13 04:58:00,
2013-05-13 01:13:00,34.4,32.0,30.09,NW,323,3.0,-999.0,89,-99.99,,,0.02,weatherlink.com 1.10,2013-05-13 05:13:00,
2013-05-13 01:28:00,34.1,31.0,30.09,NW,323,1.0,-999.0,89,-99.99,,,0.02,weatherlink.com 1.10,2013-05-13 05:28:00,
2013-05-13 01:43:00,33.6,31.0,30.09,NNW,333,2.0,-999.0,90,-99.99,,,0.02,weatherlink.com 1.10,2013-05-13 05:43:00,
2013-05-13 01:58:00,33.5,31.0,30.09,NNW,333,2.0,-999.0,90,-99.99,,,0.02,weatherlink.com 1.10,2013-05-13 05:58:00,
2013-05-13 02:13:00,33.1,31.0,30.10,NNW,333,2.0,-999.0,90,-99.99,,,0.02,weatherlink.com 1.10,2013-05-13 06:13:00,
2013-05-13 02:28:00,32.3,30.0,30.10,NNW,333,1.0,-999.0,90,-99.99,,,0.02,weatherlink.com 1.10,2013-05-13 06:28:00,
2013-05-13 02:43:00,32.3,30.0,30.10,NNW,333,1.0,-999.0,91,-99.99,,,0.02,weatherlink.com 1.10,2013-05-13 06:43:00,
2013-05-13 02:58:00,32.0,30.0,30.10,NNW,333,0.0,-999.0,91,-99.99,,,0.02,weatherlink.com 1.10,2013-05-13 06:58:00,
2013-05-13 03:13:00,31.8,30.0,30.11,NNW,333,1.0,-999.0,91,-99.99,,,0.02,weatherlink.com 1.10,2013-05-13 07:13:00,
2013-05-13 03:28:00,32.0,30.0,30.11,NNW,333,0.0,-999.0,92,-99.99,,,0.02,weatherlink.com 1.10,2013-05-13 07:28:00,
2013-05-13 03:43:00,31.6,29.0,30.11,NNW,333,0.0,-999.0,91,-99.99,,,0.02,weatherlink.com 1.10,2013-05-13 07:43:00,
2013-05-13 03:58:00,30.2,28.0,30.11,NNW,333,0.0,-999.0,91,-99.99,,,0.02,weatherlink.com 1.10,2013-05-13 07:58:00,
2013-05-13 04:13:00,29.5,27.0,30.11,NNW,333,2.0,-999.0,91,-99.99,,,0.02,weatherlink.com 1.10,2013-05-13 08:13:00,
2013-05-13 07:11:00,30.8,30.0,30.16,NNW,333,0.0,-999.0,95,-99.99,,,0.02,weatherlink.com 1.10,2013-05-13 11:11:00,
2013-05-13 07:29:00,33.7,32.0,30.16,NNW,333,0.0,-999.0,94,-99.99,,,0.02,weatherlink.com 1.10,2013-05-13 11:29:00,
2013-05-13 07:44:00,34.7,32.0,30.16,NNW,333,0.0,-999.0,89,-99.99,,,0.02,weatherlink.com 1.10,2013-05-13 11:44:00,
2013-05-13 07:59:00,35.9,32.0,30.16,NW,318,2.0,-999.0,84,-99.99,,,0.02,weatherlink.com 1.10,2013-05-13 11:59:00,
2013-05-13 08:14:00,37.2,31.0,30.16,NNW,342,4.0,-999.0,79,-99.99,,,0.02,weatherlink.com 1.10,2013-05-13 12:14:00,
2013-05-13 08:29:00,38.2,31.0,30.16,NNW,335,4.0,-999.0,75,-99.99,,,0.02,weatherlink.com 1.10,2013-05-13 12:29:00,
2013-05-13 08:44:00,38.6,30.0,30.17,WNW,303,4.0,-999.0,71,-99.99,,,0.02,weatherlink.com 1.10,2013-05-13 12:44:00,
2013-05-13 08:59:00,39.4,29.0,30.17,NNW,348,12.0,-999.0,66,-99.99,,,0.02,weatherlink.com 1.10,2013-05-13 12:59:00,
2013-05-13 09:14:00,39.9,29.0,30.17,WNW,300,6.0,-999.0,64,-99.99,,,0.02,weatherlink.com 1.10,2013-05-13 13:14:00,
2013-05-13 09:29:00,40.8,29.0,30.18,WNW,290,7.0,-999.0,62,-99.99,,,0.02,weatherlink.com 1.10,2013-05-13 13:29:00,
2013-05-13 09:44:00,40.6,28.0,30.18,NW,307,8.0,-999.0,60,-99.99,,,0.02,weatherlink.com 1.10,2013-05-13 13:44:00,
2013-05-13 09:59:00,41.4,28.0,30.18,NW,307,9.0,-999.0,60,-99.99,,,0.02,weatherlink.com 1.10,2013-05-13 13:59:00,
2013-05-13 10:14:00,41.9,29.0,30.17,NNW,333,12.0,-999.0,61,-99.99,,,0.02,weatherlink.com 1.10,2013-05-13 14:14:00,
2013-05-13 10:29:00,41.7,29.0,30.17,NW,304,8.0,-999.0,61,-99.99,,,0.02,weatherlink.com 1.10,2013-05-13 14:29:00,
2013-05-13 10:45:00,43.3,31.0,30.17,North,355,7.0,-999.0,62,-99.99,,,0.02,weatherlink.com 1.10,2013-05-13 14:45:00,
2013-05-13 11:00:00,43.2,30.0,30.18,NNW,337,4.0,-999.0,60,-99.99,,,0.02,weatherlink.com 1.10,2013-05-13 15:00:00,
2013-05-13 11:15:00,43.2,27.0,30.18,WNW,290,6.0,-999.0,54,-99.99,,,0.02,weatherlink.com 1.10,2013-05-13 15:15:00,
2013-05-13 11:30:00,44.2,29.0,30.18,WNW,296,11.0,-999.0,56,-99.99,,,0.02,weatherlink.com 1.10,2013-05-13 15:30:00,
2013-05-13 11:45:00,44.4,27.0,30.19,NW,312,11.0,-999.0,51,-99.99,,,0.02,weatherlink.com 1.10,2013-05-13 15:45:00,
2013-05-13 12:00:00,44.1,25.0,30.19,WNW,296,14.0,-999.0,48,-99.99,,,0.02,weatherlink.com 1.10,2013-05-13 16:00:00,
2013-05-13 12:15:00,45.0,28.0,30.19,North,360,24.0,-999.0,51,-99.99,,,0.00,weatherlink.com 1.10,2013-05-13 16:15:00,
2013-05-13 12:30:00,45.0,28.0,30.19,North,350,15.0,-999.0,52,-99.99,,,0.00,weatherlink.com 1.10,2013-05-13 16:30:00,
2013-05-13 12:45:00,45.5,26.0,30.19,NNW,330,19.0,-999.0,47,-99.99,,,0.00,weatherlink.com 1.10,2013-05-13 16:45:00,
2013-05-13 13:00:00,45.5,27.0,30.20,WNW,298,16.0,-999.0,48,-99.99,,,0.00,weatherlink.com 1.10,2013-05-13 17:00:00,
2013-05-13 13:15:00,46.3,25.0,30.20,WNW,298,14.0,-999.0,44,-99.99,,,0.00,weatherlink.com 1.10,2013-05-13 17:15:00,
2013-05-13 13:30:00,45.6,25.0,30.20,North,360,9.0,-999.0,44,-99.99,,,0.00,weatherlink.com 1.10,2013-05-13 17:30:00,
2013-05-13 13:45:00,47.5,30.0,30.20,NNW,343,13.0,-999.0,50,-99.99,,,0.00,weatherlink.com 1.10,2013-05-13 17:45:00,
2013-05-13 14:00:00,46.5,24.0,30.20,WNW,287,15.0,-999.0,42,-99.99,,,0.00,weatherlink.com 1.10,2013-05-13 18:00:00,
2013-05-13 14:15:00,46.8,26.0,30.19,NNW,346,10.0,-999.0,45,-99.99,,,0.00,weatherlink.com 1.10,2013-05-13 18:15:00,
2013-05-13 14:45:00,47.1,24.0,30.19,West,272,14.0,-999.0,40,-99.99,,,0.00,weatherlink.com 1.10,2013-05-13 18:45:00,
2013-05-13 15:00:00,47.0,23.0,30.19,WNW,283,13.0,-999.0,39,-99.99,,,0.00,weatherlink.com 1.10,2013-05-13 19:00:00,
2013-05-13 15:15:00,47.6,25.0,30.18,WNW,290,10.0,-999.0,41,-99.99,,,0.00,weatherlink.com 1.10,2013-05-13 19:15:00,
2013-05-13 15:31:00,48.8,27.0,30.18,NNW,338,6.0,-999.0,43,-99.99,,,0.00,weatherlink.com 1.10,2013-05-13 19:31:00,
2013-05-13 15:45:00,48.5,29.0,30.18,NNW,329,13.0,-999.0,48,-99.99,,,0.00,weatherlink.com 1.10,2013-05-13 19:45:00,
2013-05-13 16:00:00,48.0,25.0,30.18,NW,313,6.0,-999.0,40,-99.99,,,0.00,weatherlink.com 1.10,2013-05-13 20:00:00,
2013-05-13 16:15:00,48.8,29.0,30.17,West,263,6.0,-999.0,46,-99.99,,,0.00,weatherlink.com 1.10,2013-05-13 20:15:00,
2013-05-13 16:30:00,47.6,26.0,30.17,WNW,294,11.0,-999.0,43,-99.99,,,0.00,weatherlink.com 1.10,2013-05-13 20:30:00,
2013-05-13 16:45:00,48.1,23.0,30.17,North,355,10.0,-999.0,37,-99.99,,,0.00,weatherlink.com 1.10,2013-05-13 20:45:00,
2013-05-13 17:00:00,47.9,23.0,30.17,NNW,337,14.0,-999.0,37,-99.99,,,0.00,weatherlink.com 1.10,2013-05-13 21:00:00,
2013-05-13 17:15:00,48.5,24.0,30.17,NNW,348,12.0,-999.0,39,-99.99,,,0.00,weatherlink.com 1.10,2013-05-13 21:15:00,
2013-05-13 17:30:00,48.2,22.0,30.16,WNW,300,7.0,-999.0,36,-99.99,,,0.00,weatherlink.com 1.10,2013-05-13 21:30:00,
2013-05-13 17:45:00,47.8,21.0,30.17,WNW,283,9.0,-999.0,34,-99.99,,,0.00,weatherlink.com 1.10,2013-05-13 21:45:00,
2013-05-13 18:00:00,48.2,23.0,30.17,NW,322,4.0,-999.0,37,-99.99,,,0.00,weatherlink.com 1.10,2013-05-13 22:00:00,
2013-05-13 18:15:00,47.9,23.0,30.17,NW,311,7.0,-999.0,37,-99.99,,,0.00,weatherlink.com 1.10,2013-05-13 22:15:00,
2013-05-13 18:30:00,47.5,22.0,30.17,WNW,303,5.0,-999.0,37,-99.99,,,0.00,weatherlink.com 1.10,2013-05-13 22:30:00,
2013-05-13 18:45:00,47.2,22.0,30.17,NW,311,4.0,-999.0,37,-99.99,,,0.00,weatherlink.com 1.10,2013-05-13 22:45:00,
2013-05-13 19:00:00,46.8,23.0,30.17,NW,325,2.0,-999.0,40,-99.99,,,0.00,weatherlink.com 1.10,2013-05-13 23:00:00,
2013-05-13 19:15:00,46.6,23.0,30.16,WNW,298,3.0,-999.0,40,-99.99,,,0.00,weatherlink.com 1.10,2013-05-13 23:15:00,
2013-05-13 19:30:00,46.8,22.0,30.16,WNW,300,2.0,-999.0,37,-99.99,,,0.00,weatherlink.com 1.10,2013-05-13 23:30:00,
2013-05-13 19:45:00,46.7,24.0,30.15,NW,306,2.0,-999.0,41,-99.99,,,0.00,weatherlink.com 1.10,2013-05-13 23:45:00,
2013-05-13 20:00:00,46.3,25.0,30.15,WNW,301,3.0,-999.0,44,-99.99,,,0.00,weatherlink.com 1.10,2013-05-14 00:00:00,
2013-05-13 20:15:00,45.5,23.0,30.14,WNW,301,0.0,-999.0,42,-99.99,,,0.00,weatherlink.com 1.10,2013-05-14 00:15:00,
2013-05-13 20:30:00,44.7,30.0,30.14,WNW,301,0.0,-999.0,57,-99.99,,,0.00,weatherlink.com 1.10,2013-05-14 00:30:00,
2013-05-13 20:45:00,41.7,29.0,30.14,WNW,301,0.0,-999.0,62,-99.99,,,0.00,weatherlink.com 1.10,2013-05-14 00:45:00,
2013-05-13 21:00:00,40.1,29.0,30.14,WNW,301,0.0,-999.0,65,-99.99,,,0.00,weatherlink.com 1.10,2013-05-14 01:00:00,
2013-05-13 21:15:00,39.3,30.0,30.14,WNW,300,0.0,-999.0,70,-99.99,,,0.00,weatherlink.com 1.10,2013-05-14 01:15:00,
2013-05-13 21:30:00,38.6,31.0,30.15,WNW,300,0.0,-999.0,73,-99.99,,,0.00,weatherlink.com 1.10,2013-05-14 01:30:00,
2013-05-13 21:45:00,37.9,31.0,30.15,WNW,301,0.0,-999.0,77,-99.99,,,0.00,weatherlink.com 1.10,2013-05-14 01:45:00,
2013-05-13 22:01:00,37.0,31.0,30.15,WNW,301,0.0,-999.0,78,-99.99,,,0.00,weatherlink.com 1.10,2013-05-14 02:01:00,
2013-05-13 22:16:00,37.3,30.0,30.15,WNW,300,0.0,-999.0,75,-99.99,,,0.00,weatherlink.com 1.10,2013-05-14 02:16:00,
2013-05-13 22:31:00,37.7,31.0,30.14,WNW,300,0.0,-999.0,76,-99.99,,,0.00,weatherlink.com 1.10,2013-05-14 02:31:00,
2013-05-13 22:46:00,37.3,31.0,30.15,WNW,300,0.0,-999.0,77,-99.99,,,0.00,weatherlink.com 1.10,2013-05-14 02:46:00,
2013-05-13 23:01:00,37.2,31.0,30.15,WNW,300,0.0,-999.0,77,-99.99,,,0.00,weatherlink.com 1.10,2013-05-14 03:01:00,
2013-05-13 23:16:00,37.1,31.0,30.15,WNW,301,0.0,-999.0,78,-99.99,,,0.00,weatherlink.com 1.10,2013-05-14 03:16:00,
2013-05-13 23:31:00,37.1,31.0,30.14,WNW,301,0.0,-999.0,79,-99.99,,,0.00,weatherlink.com 1.10,2013-05-14 03:31:00,
2013-05-13 23:46:00,37.0,31.0,30.14,WNW,301,0.0,-999.0,78,-99.99,,,0.00,weatherlink.com 1.10,2013-05-14 03:46:00,